Regional Weather Roundup
Issued by NWS Mobile, AL

Home | Current Version | Previous Version | Text Only | Print | Product List | Glossary On
Versions: 1 2 3 4 5 6 7 8 9 10 11 12 13 14 15 16 17 18 19 20 21 22 23 24 25 26 27 28 29 30 31 32 33 34 35 36 37 38 39 40 41 42 43 44 45 46 47 48 49 50
000
ASUS44 KMOB 032217
RWRMOB
REGIONAL WEATHER ROUNDUP
NATIONAL WEATHER SERVICE MOBILE AL
500 PM CDT SUN MAY 03 2015

ALZ061>064-032300-
COASTAL ALABAMA


CITY           SKY/WX    TMP DP  RH WIND       PRES   REMARKS
MOBILE REG APT MOSUNNY   77  51  40 SE10      30.11S
BROOKLEY FIELD MOSUNNY   76  60  57 S9        30.12S
GULF SHORES    PTCLDY    75  61  62 SE7       30.11F

$$

ALZ051>060-032300-
INTERIOR SOUTHWEST AND SOUTH CENTRAL ALABAMA


CITY           SKY/WX    TMP DP  RH WIND       PRES   REMARKS
ANDALUSIA/OPP  MOSUNNY   86  50  28 CALM      30.10F
EVERGREEN      SUNNY     80  52  37 S7        30.10S
FLORALA        MOCLDY    80  55  42 S9        30.12S
GREENVILLE     FAIR      79  47  32 SW5       30.10S

$$

FLZ001>006-032300-
WESTERN FLORIDA PANHANDLE


CITY           SKY/WX    TMP DP  RH WIND       PRES   REMARKS
CRESTVIEW      SUNNY     81  57  43 S10G16    30.12S
DESTIN         SUNNY     78  63  59 S8        30.11F
DUKE FIELD     NOT AVBL
MARY ESTHER    SUNNY     76  60  57 S13       30.11S
MILTON         PTCLDY    80  59  48 S9        30.11S
PENSACOLA      SUNNY     76  62  62 SE10      30.11F
NAS PENSACOLA  MOSUNNY   76  63  64 SE9       30.11S
VALPARAISO     MOSUNNY   77  61  58 S10       30.11F

$$

...MARINE OBSERVATIONS...

STATION/POSITION TIME  SKY/WX   TEMP    WIND        PRES    VSBY
                                AIR SEA DIR/SP/G
                 (UTC)          (F)     (DEG/KT/KT) (MB)    (MI)
PASCAGOULA       2100            74     160/ 10/ 12 1019.6F
PETIT BOIS ISL   2100            75     140/  8/  9 1020.2F
E DAUPHIN ISLAND 2200            73     120/  8/  9 1019.4F
MIDDLE BAY LIGHT 2100            72     160/ 10     1019.3F
USCG MOBILE BAY  2100            74 71  170/  8/ 12 1018.8F
STATE DOCKS      2100            75 69              1019.5F
MEAHER PARK      2200            73     200/ 10     1019.3S
FORT MORGAN      2100            74     140/  8/ 11 1019.5F
12 S ORANGE BCH  2150            73 76  100/ 10/ 10 1019.1F
WVE H/P(F/S)=  1/ 3

PENSACOLA BAY    2100            80 76  140/  3/  8 1020.2F
64 S DAUPHIN ISL 2150            74 77   90/ 10/ 14 1019.2F
WVE H/P(F/S)=  1/ 4

67 S FORT MORGAN 2130            76                 1018.6F
115 SE PENSACOLA 2150            74 75  110/ 16/ 17 1019.5S
WVE H/P(F/S)=  4/ 6

MID GULF/42001   2150            76 79   60/ 12/ 14 1017.2F
WVE H/P(F/S)=  2/ 3

EAST GULF/42003  2150            77 80  100/ 17/ 21 1017.2R
WVE H/P(F/S)=  7/ 8


$$

...NEARBY LOCATIONS

CITY           SKY/WX    TMP DP  RH WIND       PRES   REMARKS
GULFPORT       SUNNY     77  56  48 SE12      30.10F
BILOXI         SUNNY     77  57  50 S8        30.10F
PASCAGOULA     SUNNY     77  54  44 SE5       30.11S
HATTIESBURG    MOSUNNY   81  49  32 S5        30.08S
LAUREL         SUNNY     81  46  30 S9        30.09F
MERIDIAN       MOSUNNY   80  48  32 S8        30.08F
MERIDIAN NAS   MOSUNNY   79  47  32 SW3       30.09S
MONTGOMERY     SUNNY     82  47  29 SW6       30.11S
MAXWELL AFB    MOSUNNY   80  49  33 S3        30.10S
TROY           MOSUNNY   78  53  41 SE5       30.12S
FORT RUCKER    SUNNY     81  50  33 S5        30.10S
DALEVILLE      MOSUNNY   82  47  29 SW6       30.10F
DOTHAN         MOSUNNY   77  53  43 CALM      30.15S

$$

...OTHER SURROUNDING LOCATIONS...

CITY           SKY/WX    TMP DP  RH WIND       PRES   REMARKS
BIRMINGHAM     MOSUNNY   80  47  31 S10       30.12F
TUSCALOOSA     MOSUNNY   80  49  33 S5        30.09F
COLUMBUS GA    MOSUNNY   79  45  29 SW3       30.11F
PANAMA CITY    NOT AVBL
TALLAHASSEE    MOSUNNY   83  48  29 N7        30.10F
BATON ROUGE    PTSUNNY   78  58  49 E8        30.06S
NEW ORLEANS    MOSUNNY   80  54  40 SE12      30.07F
SLIDELL        SUNNY     78  51  38 SE10      30.09S
JACKSON        MOSUNNY   82  50  32 S12       30.06F
MCCOMB         CLOUDY    81  54  39 S7        30.07F

$$

...SURROUNDING MARINE OBSERVATIONS...

STATION/POSITION TIME  SKY/WX   TEMP    WIND        PRES    VSBY
                                AIR SEA DIR/SP/G
                 (UTC)          (F)     (DEG/KT/KT) (MB)    (MI)
WAVELAND         2100            73 74  160/  8/ 11 1019.6F
PASCAGOULA RGN A 2100            77     150/  8/ 13 1019.4F
PASCAGOULA PORT  2100               78                N/A
GRAND ISLE       2100            76 78  130/  8/  9 1019.0F
SOUTHWEST PASS   2200            74      90/  8/  9 1019.1F
PILOT STATION E  2100            81 67   90/ 10/ 11 1019.5F
SHELL BEACH      2100            75 76  120/ 11/ 14 1018.8F
PANAMA CITY      2100            75 78  180/ 14/ 17 1019.1F
APALACHICOLA     2100            74 72  150/  9/ 11 1019.9F
TYNDALL TOWER C  2200            73     130/  9/ 10 1019.6F
S APLCHCLA/42036 2150            76 75   90/ 12/ 14 1019.4F
WVE H/P(F/S)=  3/ 6


$$



USA.gov is the U.S. government's official web portal to all federal, state and local government web resources and services.